This is the latest recevied weather packets stored in our database for station/object DO6MJ-1. If no packets are shown the sender has not sent any weather packets the latest 10 day(s).
| Time | Temp. | Humidity | Pressure | Rain* | Wind** | Luminosity | Snow |
|---|---|---|---|---|---|---|---|
| 1777521679 | 2.22° C | 76% | 1024.7 hPa | 0 mm | - | - | - |
| 1777520478 | 2.22° C | 75% | 1024.8 hPa | 0 mm | - | - | - |
| 1777519278 | 2.22° C | 74% | 1024.6 hPa | 0 mm | - | - | - |
| 1777518077 | 2.78° C | 72% | 1024.6 hPa | 0 mm | - | - | - |
| 1777516877 | 2.78° C | 72% | 1024.5 hPa | 0 mm | - | - | - |
| 1777515677 | 3.33° C | 71% | 1024.4 hPa | 0 mm | - | - | - |
| 1777514477 | 3.33° C | 70% | 1024.4 hPa | 0 mm | - | - | - |
| 1777513276 | 3.89° C | 69% | 1024.5 hPa | 0 mm | - | - | - |
| 1777512077 | 3.89° C | 68% | 1024.1 hPa | 0 mm | - | - | - |
| 1777510875 | 4.44° C | 67% | 1024.1 hPa | 0 mm | - | - | - |
| 1777509675 | 4.44° C | 65% | 1024 hPa | 0 mm | - | - | - |
| 1777508475 | 5° C | 64% | 1024 hPa | 0 mm | - | - | - |
| 1777507275 | 5.56° C | 63% | 1024 hPa | 0 mm | - | - | - |
| 1777506075 | 5.56° C | 63% | 1024 hPa | 0 mm | - | - | - |
| 1777504874 | 5.56° C | 62% | 1024.1 hPa | 0 mm | - | - | - |
| 1777503675 | 6.11° C | 60% | 1024 hPa | 0 mm | - | - | - |
| 1777502474 | 6.67° C | 59% | 1023.7 hPa | 0 mm | - | - | - |
| 1777501273 | 6.67° C | 57% | 1023.7 hPa | 0 mm | - | - | - |
| 1777500075 | 7.22° C | 56% | 1023.4 hPa | 0 mm | - | - | - |
| 1777498873 | 7.22° C | 55% | 1023.3 hPa | 0 mm | - | - | - |
| 1777497673 | 7.78° C | 54% | 1023.2 hPa | 0 mm | - | - | - |
| 1777496475 | 8.33° C | 53% | 1023.2 hPa | 0 mm | - | - | - |
| 1777495272 | 8.89° C | 51% | 1022.9 hPa | 0 mm | - | - | - |
| 1777494072 | 9.44° C | 49% | 1022.9 hPa | 0 mm | - | - | - |
| 1777492871 | 10° C | 46% | 1022.8 hPa | 0 mm | - | - | - |
* Rain latest hour (hover to see other rain measurements)
** Current wind speed in m/s (hover to see current wind gust speed)